{"data":{"norad_id":54170,"epoch":"2026-05-24T23:26:35.861280Z","epoch_age_seconds":87348,"freshness":"FRESH","line1":"1 54170U 22141P   26144.97680395  .00001735  00000+0  12702-3 0  9991","line2":"2 54170  53.2140  21.7064 0001255  87.2031 272.9104 15.08845327197373","mean_motion":15.08845327,"eccentricity":0.0001255,"inclination_deg":53.214,"raan_deg":21.7064,"arg_perigee_deg":87.2031,"mean_anomaly_deg":272.9104,"bstar":0.00012702,"rev_number":19737,"period_min":95.437217734114,"perigee_km":538.85891455874,"apogee_km":540.59529844947,"semimajor_km":6917.8641065041,"source":"CELESTRAK","updated_at":"2026-05-25T13:38:17.661985Z"}}